indice_tiempo,ind_burs_agrop,ind_burs_alim_beb,ind_burs_side,ind_burs_qui_otros,ind_burs_min_no_met,ind_burs_metalmec,ind_burs_bs_raices,ind_burs_const,ind_burs_energ,ind_burs_sspp,ind_burs_telecom,ind_burs_comer,ind_burs_fciero
2004-10-04,7.55759295428,5.56839132939,11.1359984742,60.3326062623,19.4547690024,19.8344566735,11.8649950939,51.5170960692,18.6049794955,15.454515749,16.3794549297,11.1826211747,4.73181407574
2004-10-05,7.45074127976,5.58769010002,11.1665714337,61.0129073832,19.7392129662,19.8406274923,11.9191667552,51.0319993409,19.3628550394,15.510430202,16.9557978869,11.2449916406,4.77358186866
2004-10-06,7.61422783013,5.60043629246,11.1849272122,61.8514657396,19.6487893499,19.4746666409,12.0606582204,51.3221839971,19.3738814446,15.5896445017,17.1783126479,11.2142337839,4.81755868866
2004-10-07,7.18401479352,5.5896282554,11.5748605885,62.3073715598,19.6789061837,19.4605010975,12.1375047414,51.3706318724,20.2651169366,15.6839171318,17.9489655387,11.1194903711,4.86083650398
2004-10-08,6.84994133009,5.56259195109,11.7323199738,62.936406432,19.4503320677,19.562648445,12.198182285,51.0104960943,20.0042435706,15.7467929873,16.8149619673,11.13383943,4.89728621446
2004-10-09,6.84994133009,5.56259195109,11.7323199738,62.936406432,19.4503320677,19.562648445,12.198182285,51.0104960943,20.0042435706,15.7467929873,16.8149619673,11.13383943,4.89728621446
2004-10-10,6.84994133009,5.56259195109,11.7323199738,62.936406432,19.4503320677,19.562648445,12.198182285,51.0104960943,20.0042435706,15.7467929873,16.8149619673,11.13383943,4.89728621446
2004-10-11,6.84994133009,5.56259195109,11.7323199738,62.936406432,19.4503320677,19.562648445,12.198182285,51.0104960943,20.0042435706,15.7467929873,16.8149619673,11.13383943,4.89728621446
2004-10-12,6.84994133009,5.56259195109,11.7323199738,62.936406432,19.4503320677,19.562648445,12.198182285,51.0104960943,20.0042435706,15.7467929873,16.8149619673,11.13383943,4.89728621446
2004-10-13,6.58164396174,5.58525951996,11.6147245955,63.8462161844,17.99685042,19.3822489675,12.3372497292,49.3998632921,20.8580153208,15.8207804638,16.4709564162,11.0307827688,4.94419240954
2004-10-14,6.46476419346,5.58875120764,11.47009288,63.8826481975,17.4410738628,20.0870198459,12.4210135055,50.3183875398,21.0506739983,15.7143385697,16.3342356207,10.9208616457,4.99730404597
2004-10-15,6.4345114277,5.62564101746,11.4066089153,64.2043822569,17.5912265525,20.380752813,12.5056397235,52.451982382,20.7057098276,15.6431228277,16.86101902,11.0479948235,5.04642854795
2004-10-16,6.4345114277,5.62564101746,11.4066089153,64.2043822569,17.5912265525,20.380752813,12.5056397235,52.451982382,20.7057098276,15.6431228277,16.86101902,11.0479948235,5.04642854795
2004-10-17,6.4345114277,5.62564101746,11.4066089153,64.2043822569,17.5912265525,20.380752813,12.5056397235,52.451982382,20.7057098276,15.6431228277,16.86101902,11.0479948235,5.04642854795
2004-10-18,6.66375051787,5.57030620313,11.5689262384,64.9626963582,16.6796963507,20.2364856265,12.5610322813,50.6705318091,21.0101952122,15.7430128895,16.7374131386,11.0181063076,5.11586846676
2004-10-19,7.55710666619,5.51415867964,11.5713559726,65.8812654787,16.9625207287,20.6831435308,12.6813016232,47.9222282576,20.126864818,15.7892214349,16.58042309,10.9646150283,5.16796939518
2004-10-20,7.99144543898,5.48612589585,11.5265638379,66.5747814618,16.8521365333,21.0173788901,12.7719122942,48.0311869495,20.4716187633,15.7904186578,16.5538541967,10.858629534,5.21416590466
2004-10-21,8.00399087562,5.48766937971,11.350813865,67.291251155,16.3198113126,21.119423694,12.8528194169,50.4181613944,19.6246421469,15.8429808382,16.6883422014,10.6571328964,5.25820840953
2004-10-22,8.17884821015,5.49985832379,11.2360517686,68.2435536298,15.8909927134,20.9321100216,13.0354502704,50.582805412,19.7021274443,15.8546046027,17.0028558387,10.6908847701,5.30144738297
2004-10-23,8.17884821015,5.49985832379,11.2360517686,68.2435536298,15.8909927134,20.9321100216,13.0354502704,50.582805412,19.7021274443,15.8546046027,17.0028558387,10.6908847701,5.30144738297
2004-10-24,8.17884821015,5.49985832379,11.2360517686,68.2435536298,15.8909927134,20.9321100216,13.0354502704,50.582805412,19.7021274443,15.8546046027,17.0028558387,10.6908847701,5.30144738297
2004-10-25,8.24843874494,5.50663893923,11.234049122,68.565748221,15.7504729577,20.9133744236,13.1678463844,51.763642908,20.831887511,15.8440374256,17.0187705512,10.6538117717,5.33588782873
2004-10-26,9.012796992,5.50337485111,11.2654230997,68.427917748,15.8635987351,20.8503492701,13.2599959954,51.8552437924,21.988602881,15.8124694699,17.117488569,10.5508609252,5.37290677156
2004-10-27,9.012796992,5.50337485111,11.2654230997,68.427917748,15.8635987351,20.8503492701,13.2599959954,51.8552437924,21.988602881,15.8124694699,17.117488569,10.5508609252,5.37290677156
2004-10-28,9.05516117913,5.61510941814,11.3326278442,68.4062223303,16.2008510293,19.8405162142,13.3717730887,52.51209201,22.5188076546,15.9001846368,17.2575489672,10.652161129,5.42720274704
2004-10-29,8.91417842696,5.56816100787,11.3483257204,69.0209699266,16.1514298446,19.3051228441,13.4304388111,56.9200014746,23.8508634518,15.9588564021,17.3722498265,10.5769739889,5.46773142542
2004-10-30,8.91417842696,5.56816100787,11.3483257204,69.0209699266,16.1514298446,19.3051228441,13.4304388111,56.9200014746,23.8508634518,15.9588564021,17.3722498265,10.5769739889,5.46773142542
2004-10-31,8.91417842696,5.56816100787,11.3483257204,69.0209699266,16.1514298446,19.3051228441,13.4304388111,56.9200014746,23.8508634518,15.9588564021,17.3722498265,10.5769739889,5.46773142542
2004-11-01,9.21508934404,5.53563382781,11.2248081819,69.0215981117,16.326563075,19.1577181008,13.5844494035,52.7572949084,23.7601873449,16.1166992114,17.6457137148,10.5546489486,5.54786956867
2004-11-02,9.14612752839,5.58897953436,11.1869324567,69.9298644897,16.4263868181,18.7264076458,13.6649801029,30.4386084075,22.6915745558,16.1441331237,16.6523289873,10.1047773204,5.64566885624
2004-11-03,11.0683254217,5.67887914031,11.015135608,69.9374077531,16.5612665359,18.4886889162,13.8029384842,30.5358772045,21.387138711,16.2141862028,16.5881207759,9.89457297135,5.72535130341
2004-11-04,11.6867841132,5.66349330259,10.8849853632,70.6603260016,16.7794892966,18.5183354495,13.7881118038,30.9413553353,21.4514787935,16.1662522401,17.1790908238,9.84692209657,5.77165629677
2004-11-05,11.9001234848,5.68067423402,10.8091885934,72.2639895246,16.7889552832,18.5393136397,13.8791393679,31.0704686754,27.7513727423,16.1905625206,16.6682235748,9.7099052639,5.82238322993
2004-11-06,11.9001234848,5.68067423402,10.8091885934,72.2639895246,16.7889552832,18.5393136397,13.8791393679,31.0704686754,27.7513727423,16.1905625206,16.6682235748,9.7099052639,5.82238322993
2004-11-07,11.9001234848,5.68067423402,10.8091885934,72.2639895246,16.7889552832,18.5393136397,13.8791393679,31.0704686754,27.7513727423,16.1905625206,16.6682235748,9.7099052639,5.82238322993
2004-11-08,12.4247607627,5.65882585727,10.8162170368,72.1844752349,17.2294264666,19.496668331,13.9684140583,32.2210493783,28.8133138153,16.2298232072,16.640381639,9.13914776604,5.87091791332
2004-11-09,12.4883675144,5.61314744924,10.5742039866,72.2429926,17.4225206285,18.7427433084,14.0366566885,31.4837550683,28.8465629386,16.2676649385,16.5962958881,9.16998146843,5.91223481993
2004-11-10,12.7083756075,5.54971832625,10.4823946003,72.8768490246,17.4029272532,18.7754993115,14.1337404681,30.9761662089,28.9224829472,16.3028309022,16.6527306186,9.18305404669,5.98359807774
2004-11-11,12.5951035053,5.47481354318,10.5870751733,72.9390231939,18.2691250071,18.5699686144,14.1578973683,31.4675293261,29.0407360457,16.3041098662,16.7501306307,9.16926706241,6.02767972592
2004-11-12,12.9071244519,5.44468505532,10.4022704022,74.3509560807,19.0205935184,18.353746304,14.0937976793,32.0618679647,29.0747288534,16.5528743661,16.7325880273,9.21407712871,6.04639278024
2004-11-13,12.9071244519,5.44468505532,10.4022704022,74.3509560807,19.0205935184,18.353746304,14.0937976793,32.0618679647,29.0747288534,16.5528743661,16.7325880273,9.21407712871,6.04639278024
2004-11-14,12.9071244519,5.44468505532,10.4022704022,74.3509560807,19.0205935184,18.353746304,14.0937976793,32.0618679647,29.0747288534,16.5528743661,16.7325880273,9.21407712871,6.04639278024
2004-11-15,13.0751398691,5.4204194974,10.3189884737,75.293539109,19.2408512465,18.1874927288,14.1439693558,29.5302863973,29.7188701389,16.7857416675,17.656584638,8.95845643476,6.10410660671
2004-11-16,13.1933802699,5.43820576089,10.2834854438,76.0697851486,20.0690549968,18.2196748264,14.1382887939,28.7153865083,29.9765515271,16.8004267197,17.8057902207,8.89526664606,6.10865133196
2004-11-17,12.5973398426,5.4460837254,10.3215684441,76.9119971994,20.1750702991,17.9555781052,14.0874971621,28.6866658901,30.3462008954,16.8213680083,17.7531518806,8.89647160363,6.15174939842
2004-11-18,12.7129838413,5.45498637755,10.3688878591,77.3001615659,20.4250634773,17.7640860402,14.139082373,27.9242104945,30.406070922,16.831689165,17.7861380432,8.93561102748,6.16614035142
2004-11-19,13.0451111569,5.46448915227,10.5301931379,77.824206194,20.9291904205,17.6664707272,14.0141158727,27.200078001,30.4875682153,16.8658192489,17.7328856935,9.10889356927,6.17140115537
2004-11-20,13.0451111569,5.46448915227,10.5301931379,77.824206194,20.9291904205,17.6664707272,14.0141158727,27.200078001,30.4875682153,16.8658192489,17.7328856935,9.10889356927,6.17140115537
2004-11-21,13.0451111569,5.46448915227,10.5301931379,77.824206194,20.9291904205,17.6664707272,14.0141158727,27.200078001,30.4875682153,16.8658192489,17.7328856935,9.10889356927,6.17140115537
2004-11-22,13.4329519713,5.54173435892,10.6610782946,78.1958746487,21.1259380094,17.4985746633,13.8834042621,27.4714732093,30.43246278,16.8664895901,17.6900678668,8.92351028333,6.16253297879
2004-11-23,13.4498124028,5.58042406907,10.6708595146,78.4000037453,20.9696663952,17.2399942663,14.0134931936,26.9046215292,30.5219231671,16.8930976103,17.7106116357,8.90594654445,6.16312251706
2004-11-24,12.9545872513,5.60481661586,10.6644687861,78.2886085143,20.9009188996,16.9816463075,13.9576283418,27.1085334341,31.1832320624,16.954582476,17.60949514,8.92922245819,6.15641309543
2004-11-25,13.1797956795,5.50576137856,10.5807858812,78.8098316214,20.9065151776,17.0607172298,13.9270510092,26.7303527366,32.1030838873,16.9339914519,17.5286656371,8.91558307742,6.12296466834
2004-11-26,13.3373071967,5.529566312,10.5574193049,77.7882294786,20.9279873005,17.3617298221,13.8325361075,25.0600680784,31.6242643154,16.9264734967,17.7958304519,8.78420673635,6.08689039219
2004-11-27,13.3373071967,5.529566312,10.5574193049,77.7882294786,20.9279873005,17.3617298221,13.8325361075,25.0600680784,31.6242643154,16.9264734967,17.7958304519,8.78420673635,6.08689039219
2004-11-28,13.3373071967,5.529566312,10.5574193049,77.7882294786,20.9279873005,17.3617298221,13.8325361075,25.0600680784,31.6242643154,16.9264734967,17.7958304519,8.78420673635,6.08689039219
2004-11-29,13.3914432094,5.60942621988,10.4650021356,77.7575657201,20.2638507848,17.3827029063,13.2033745651,25.0175582623,32.6401121851,16.8677999933,17.6502883345,8.70400874932,6.00809950428
2004-11-30,14.040791227,5.63868990478,10.5189438945,77.2522955284,18.84906732,17.5498279233,13.1564136825,54.2185741824,34.8882422377,16.9061559922,18.5813783728,8.60950837443,5.90701016244
2004-12-01,10.8783657284,5.61811422067,10.5207714698,77.4361989521,18.980317005,17.8288867101,13.7984440819,53.9151837634,37.9843292765,16.8434743225,19.4319471078,8.49565443424,5.85642745358
2004-12-02,10.5793178874,5.6093615299,10.5070848696,77.4738805559,18.9489556912,17.7011312676,14.5060884143,52.0863699169,38.331824156,16.7270113755,18.3822143213,8.45129027105,5.81879493215
2004-12-03,10.9678742135,5.56744867638,10.45655957,76.4138541794,18.674000563,17.3097954706,14.6416121374,52.3039488037,32.8762458928,16.7454162966,18.9401178447,8.20573137449,5.74441665079
2004-12-04,10.9678742135,5.56744867638,10.45655957,76.4138541794,18.674000563,17.3097954706,14.6416121374,52.3039488037,32.8762458928,16.7454162966,18.9401178447,8.20573137449,5.74441665079
2004-12-05,10.9678742135,5.56744867638,10.45655957,76.4138541794,18.674000563,17.3097954706,14.6416121374,52.3039488037,32.8762458928,16.7454162966,18.9401178447,8.20573137449,5.74441665079
2004-12-06,10.0945444603,5.54996278808,10.4458417654,76.683599263,17.4495963632,16.8013252417,14.7028192702,55.1601592648,32.1346832147,16.7771166495,19.1149731876,9.07687105081,5.70792152113
2004-12-07,10.2397895362,5.56321352869,10.4637864128,77.4228755772,16.7878340163,17.6714225726,14.7955183661,56.9050254379,31.9887874646,16.7387705415,19.6023996347,9.07310291548,5.68849863766
2004-12-08,10.2397895362,5.56321352869,10.4637864128,77.4228755772,16.7878340163,17.6714225726,14.7955183661,56.9050254379,31.9887874646,16.7387705415,19.6023996347,9.07310291548,5.68849863766
2004-12-09,10.0822473067,5.64328746142,10.4431952408,77.8794544173,16.9139648806,17.3474047675,14.9204893674,57.5374846394,31.6892214453,16.7529634101,19.8648121863,8.86178035525,5.63225220477
2004-12-10,10.0822473067,5.64328746142,10.4431952408,77.8794544173,16.9139648806,17.3474047675,14.9204893674,57.5374846394,31.6892214453,16.7529634101,19.8648121863,8.86178035525,5.63225220477
2004-12-11,10.0822473067,5.64328746142,10.4431952408,77.8794544173,16.9139648806,17.3474047675,14.9204893674,57.5374846394,31.6892214453,16.7529634101,19.8648121863,8.86178035525,5.63225220477
2004-12-12,10.0822473067,5.64328746142,10.4431952408,77.8794544173,16.9139648806,17.3474047675,14.9204893674,57.5374846394,31.6892214453,16.7529634101,19.8648121863,8.86178035525,5.63225220477
2004-12-13,10.0822473067,5.64328746142,10.4431952408,77.8794544173,16.9139648806,17.3474047675,14.9204893674,57.5374846394,31.6892214453,16.7529634101,19.8648121863,8.86178035525,5.63225220477
2004-12-14,10.313317273,5.74669050626,10.4694773239,77.977989816,15.9858368935,17.5148372417,15.0464564426,51.4834674814,30.9618106655,16.7625014526,21.7873718534,8.9184014481,5.61289396082
2004-12-15,10.1316690615,5.76801498597,10.9094928393,77.7290413266,14.9404648749,17.2681396959,15.3331780812,46.2431675409,30.6268857235,16.723912875,21.0750453023,8.76433469376,5.6454065139
2004-12-16,10.4579079737,5.79403713799,10.9462830741,76.9767012479,14.2780839089,17.1894792753,15.3297148325,44.9710530198,29.9038714437,16.7257573132,19.7154119756,8.77745785491,5.63313955837
2004-12-17,10.3789112084,5.75894644841,11.0424153135,76.3219844809,14.0490185734,16.2953463958,15.4198156073,34.3089962883,29.7097920822,16.6765543301,19.5880363609,8.64903069032,5.64937170656
2004-12-18,10.3789112084,5.75894644841,11.0424153135,76.3219844809,14.0490185734,16.2953463958,15.4198156073,34.3089962883,29.7097920822,16.6765543301,19.5880363609,8.64903069032,5.64937170656
2004-12-19,10.3789112084,5.75894644841,11.0424153135,76.3219844809,14.0490185734,16.2953463958,15.4198156073,34.3089962883,29.7097920822,16.6765543301,19.5880363609,8.64903069032,5.64937170656
2004-12-20,10.7071735276,5.78571506951,11.0548974585,75.5029620395,14.0705066052,12.8171231173,15.5070716639,22.690834164,28.5319606689,16.6448369253,19.5126421017,8.24540920225,5.60071738074
2004-12-21,10.4999840917,5.69392995892,11.0723019564,75.9042500915,14.0338986225,13.0222576988,15.6147472176,22.0419897209,29.0282367628,16.7154755472,19.4284678858,8.30160912769,5.62001242529
2004-12-22,10.6239742113,5.58684713369,11.0163964978,75.8890074024,13.9730852432,12.354040151,15.7836364331,21.8945987355,28.9529670997,16.6485441341,18.9479714197,7.74350848998,5.63740874351
2004-12-23,8.85140158796,5.48347752976,10.9266710368,72.4062497147,13.622382333,10.1296371348,15.835623575,23.1308817834,29.1786911359,16.6814901773,18.7420926444,7.23060447514,5.71676592951
2004-12-24,8.85140158796,5.48347752976,10.9266710368,72.4062497147,13.622382333,10.1296371348,15.835623575,23.1308817834,29.1786911359,16.6814901773,18.7420926444,7.23060447514,5.71676592951
2004-12-25,8.85140158796,5.48347752976,10.9266710368,72.4062497147,13.622382333,10.1296371348,15.835623575,23.1308817834,29.1786911359,16.6814901773,18.7420926444,7.23060447514,5.71676592951
2004-12-26,8.85140158796,5.48347752976,10.9266710368,72.4062497147,13.622382333,10.1296371348,15.835623575,23.1308817834,29.1786911359,16.6814901773,18.7420926444,7.23060447514,5.71676592951
2004-12-27,8.85427944748,5.46865474257,11.0752841687,70.9845327332,14.1200473077,9.70449320249,15.806100241,22.5447090138,30.7428264853,16.7006240609,18.6850076491,7.3411616098,5.75907472637
2004-12-28,8.85427944748,5.46865474257,11.0752841687,70.9845327332,14.1200473077,9.70449320249,15.806100241,22.5447090138,30.7428264853,16.7006240609,18.6850076491,7.3411616098,5.75907472637
2004-12-29,8.7688320986,5.46850198977,11.0809004839,68.9447077276,14.0869577999,9.62715745141,15.9570869679,23.0712476093,32.613829911,16.7299397762,19.1783041022,7.43404598414,5.80644159046
2004-12-30,8.73653241819,5.46953421077,11.0999341848,68.7572160926,13.9417158946,9.30105198458,16.0913419741,22.0558107262,34.0798925359,16.7633819776,19.2656392312,7.43864780281,5.85432279164
2004-12-31,8.56079932976,5.51935179437,11.1088620409,69.3125594457,14.0317252311,9.22023004671,16.2817145968,22.2784162938,34.1736054062,16.7957146435,18.8286688668,7.4389771646,5.91257752039
2005-01-01,8.56079932976,5.51935179437,11.1088620409,69.3125594457,14.0317252311,9.22023004671,16.2817145968,22.2784162938,34.1736054062,16.7957146435,18.8286688668,7.4389771646,5.91257752039
2005-01-02,8.56079932976,5.51935179437,11.1088620409,69.3125594457,14.0317252311,9.22023004671,16.2817145968,22.2784162938,34.1736054062,16.7957146435,18.8286688668,7.4389771646,5.91257752039
2005-01-03,8.56079932976,5.51935179437,11.1088620409,69.3125594457,14.0317252311,9.22023004671,16.2817145968,22.2784162938,34.1736054062,16.7957146435,18.8286688668,7.4389771646,5.91257752039
2005-01-04,8.43469398523,5.53231629,11.3053863336,68.1625271575,13.3439355243,9.39750560114,16.6771071079,23.1810839059,33.8896617962,16.918927313,19.5701671907,7.35638772267,5.94704633238
2005-01-05,7.95184751557,5.56392806698,11.2723818894,66.8927446477,14.107134779,9.15296886762,16.8489880702,23.3543507172,33.1604270311,16.9165736184,18.8314370291,7.31962053742,5.98043949316
2005-01-06,9.192135439,5.62596307513,11.2408196432,65.6530311111,13.6124739256,9.11009893735,16.7616705947,23.8511855269,31.8676434773,16.9440991563,18.632611497,7.34338893994,6.00329294642
2005-01-07,9.0223436867,5.70827805934,11.2941781771,63.9417025618,13.0937916058,9.15619825373,16.3775964192,24.7676476922,32.245973858,17.0490901848,18.5469844114,7.12300307501,6.02776503537
2005-01-08,9.0223436867,5.70827805934,11.2941781771,63.9417025618,13.0937916058,9.15619825373,16.3775964192,24.7676476922,32.245973858,17.0490901848,18.5469844114,7.12300307501,6.02776503537
2005-01-09,9.0223436867,5.70827805934,11.2941781771,63.9417025618,13.0937916058,9.15619825373,16.3775964192,24.7676476922,32.245973858,17.0490901848,18.5469844114,7.12300307501,6.02776503537
2005-01-10,9.0223436867,5.70827805934,11.2941781771,63.9417025618,13.0937916058,9.15619825373,16.3775964192,24.7676476922,32.245973858,17.0490901848,18.5469844114,7.12300307501,6.02776503537
2005-01-11,8.19741899321,5.74656339932,11.3448764797,63.5358168083,13.6028483454,9.10203678197,16.1336952575,25.2914920475,32.6582459626,17.0807122542,18.0558845632,7.40802380813,6.15483038555
2005-01-12,8.17518261519,5.84535263135,11.1317623899,64.4248475874,14.1449462648,9.16219966542,16.1261925286,25.684513923,33.8313546183,17.1138228076,17.8296550233,8.21615166427,6.23878971229
2005-01-13,8.05238753052,5.89744261184,11.0286739012,64.6512617447,14.4323169201,9.35271895206,16.2161723671,25.3422325687,33.1295769948,17.1941905353,17.4064219353,8.55146176714,6.28082098355
2005-01-14,7.85120566141,5.93035436351,10.9936107533,65.7839107354,14.459173866,9.38451811082,16.1550040964,27.5386820065,33.3138667943,17.2471277293,17.2697377609,8.68441622119,6.32502503298
2005-01-15,7.85120566141,5.93035436351,10.9936107533,65.7839107354,14.459173866,9.38451811082,16.1550040964,27.5386820065,33.3138667943,17.2471277293,17.2697377609,8.68441622119,6.32502503298
2005-01-16,7.85120566141,5.93035436351,10.9936107533,65.7839107354,14.459173866,9.38451811082,16.1550040964,27.5386820065,33.3138667943,17.2471277293,17.2697377609,8.68441622119,6.32502503298
2005-01-17,7.85120566141,5.93035436351,10.9936107533,65.7839107354,14.459173866,9.38451811082,16.1550040964,27.5386820065,33.3138667943,17.2471277293,17.2697377609,8.68441622119,6.32502503298
2005-01-18,8.03993758636,5.97908011627,10.9041725591,69.3597710128,14.9982851501,9.40127161341,16.1531650752,27.8006138123,34.4951033072,17.2635713538,16.2089722512,8.79532308126,6.34196426921
2005-01-19,8.0598241152,6.03040568071,10.727607901,70.2423284859,15.5078197113,9.48273006528,15.8731592158,27.358167035,34.3911240239,17.2569257922,16.7737189681,8.89138634064,6.3328290737
2005-01-20,7.65382293961,6.06493005803,10.79210797,70.5430099201,15.3568775505,9.48226603457,16.1393408825,27.3138353004,36.6265536673,17.2991505766,17.5391582695,8.9297099206,6.36681663922
2005-01-21,7.65382293961,6.06493005803,10.79210797,70.5430099201,15.3568775505,9.48226603457,16.1393408825,27.3138353004,36.6265536673,17.2991505766,17.5391582695,8.9297099206,6.36681663922
2005-01-22,7.65382293961,6.06493005803,10.79210797,70.5430099201,15.3568775505,9.48226603457,16.1393408825,27.3138353004,36.6265536673,17.2991505766,17.5391582695,8.9297099206,6.36681663922
2005-01-23,7.65382293961,6.06493005803,10.79210797,70.5430099201,15.3568775505,9.48226603457,16.1393408825,27.3138353004,36.6265536673,17.2991505766,17.5391582695,8.9297099206,6.36681663922
2005-01-24,7.70084066912,6.11572686876,10.7137578977,71.3242070746,15.5806366757,9.73791555925,16.2361177994,27.5996975929,37.7441498021,17.3539105637,17.9492781529,8.94851943289,6.3793906544
2005-01-25,7.70084066912,6.11572686876,10.7137578977,71.3242070746,15.5806366757,9.73791555925,16.2361177994,27.5996975929,37.7441498021,17.3539105637,17.9492781529,8.94851943289,6.3793906544
2005-01-26,7.70084066912,6.11572686876,10.7137578977,71.3242070746,15.5806366757,9.73791555925,16.2361177994,27.5996975929,37.7441498021,17.3539105637,17.9492781529,8.94851943289,6.3793906544
2005-01-27,7.70084066912,6.11572686876,10.7137578977,71.3242070746,15.5806366757,9.73791555925,16.2361177994,27.5996975929,37.7441498021,17.3539105637,17.9492781529,8.94851943289,6.3793906544
2005-01-28,7.56445987961,6.25519020698,10.631253569,71.5210481253,15.5381694437,10.6553045212,16.4968708704,30.2410862172,39.6546439499,17.3768203316,18.5533689505,9.13550252945,6.42498358128
2005-01-29,7.56445987961,6.25519020698,10.631253569,71.5210481253,15.5381694437,10.6553045212,16.4968708704,30.2410862172,39.6546439499,17.3768203316,18.5533689505,9.13550252945,6.42498358128
2005-01-30,7.56445987961,6.25519020698,10.631253569,71.5210481253,15.5381694437,10.6553045212,16.4968708704,30.2410862172,39.6546439499,17.3768203316,18.5533689505,9.13550252945,6.42498358128
2005-01-31,7.74070481748,6.3055600982,10.4836858315,70.1682420276,15.8259724047,10.2729044318,16.5943406637,30.5231602902,40.3207479009,17.4388375218,19.1832688553,9.16117552991,6.4462361568
2005-02-01,7.74070481748,6.3055600982,10.4836858315,70.1682420276,15.8259724047,10.2729044318,16.5943406637,30.5231602902,40.3207479009,17.4388375218,19.1832688553,9.16117552991,6.4462361568
2005-02-02,7.92012242323,6.40814234567,10.1028282163,71.1079787315,16.0088552506,10.7940692139,17.2382721189,31.090038068,41.1471230652,17.5195860865,20.2478246122,9.42279097693,6.45068145697
2005-02-03,8.01066601302,6.39158577616,10.0628374756,73.011315996,16.2802329274,11.8646009791,17.4338141972,35.2163448479,43.5379904277,17.6135787419,20.1736952885,9.9288324436,6.36343506733
2005-02-04,7.94191780042,6.42162479469,10.0642535136,75.9024494983,15.435987899,11.0428530062,17.4215974124,38.3949100786,45.4828126826,17.6899128489,19.5623745312,10.0539970564,6.29028403881